Year,Month,Day,Hour,Minute,Value (Times are PST for temperature in C)
2015,12,08,00,00,8.80
2015,12,08,00,01,8.80
2015,12,08,00,02,8.80
2015,12,08,00,03,8.80
2015,12,08,00,04,8.80
2015,12,08,00,05,8.80
2015,12,08,00,06,8.80
2015,12,08,00,07,8.80
2015,12,08,00,08,8.80
2015,12,08,00,09,8.80
2015,12,08,00,10,8.80
2015,12,08,00,11,8.80
2015,12,08,00,12,8.80
2015,12,08,00,13,8.80
2015,12,08,00,14,8.80
2015,12,08,00,15,8.80
2015,12,08,00,16,8.80
2015,12,08,00,17,8.80
2015,12,08,00,18,8.80
2015,12,08,00,19,8.80
2015,12,08,00,20,8.80
2015,12,08,00,21,8.80
2015,12,08,00,22,8.80
2015,12,08,00,23,8.80
2015,12,08,00,24,8.80
2015,12,08,00,25,8.80
2015,12,08,00,26,8.80
2015,12,08,00,27,8.80
2015,12,08,00,28,8.80
2015,12,08,00,29,8.80
2015,12,08,00,30,8.80
2015,12,08,00,31,8.80
2015,12,08,00,32,8.80
2015,12,08,00,33,8.80
2015,12,08,00,34,8.80
2015,12,08,00,35,8.80
2015,12,08,00,36,8.80
2015,12,08,00,37,8.80
2015,12,08,00,38,8.80
2015,12,08,00,39,8.70
2015,12,08,00,40,8.70
2015,12,08,00,41,8.70
2015,12,08,00,42,8.70
2015,12,08,00,43,8.70
2015,12,08,00,44,8.70
2015,12,08,00,45,8.70
2015,12,08,00,46,8.70
2015,12,08,00,47,8.70
2015,12,08,00,48,8.70
2015,12,08,00,49,8.70
2015,12,08,00,50,8.70
2015,12,08,00,51,8.70
2015,12,08,00,52,8.70
2015,12,08,00,53,8.70
2015,12,08,00,54,8.70
2015,12,08,00,55,8.70
2015,12,08,00,56,8.70
2015,12,08,00,57,8.70
2015,12,08,00,58,8.70
2015,12,08,00,59,8.70
2015,12,08,01,00,8.70
2015,12,08,01,01,8.70
2015,12,08,01,02,8.70
2015,12,08,01,03,8.70
2015,12,08,01,04,8.70
2015,12,08,01,05,8.70
2015,12,08,01,06,8.70
2015,12,08,01,07,8.70
2015,12,08,01,08,8.70
2015,12,08,01,09,8.70
2015,12,08,01,10,8.70
2015,12,08,01,11,8.70
2015,12,08,01,12,8.70
2015,12,08,01,13,8.70
2015,12,08,01,14,8.70
2015,12,08,01,15,8.70
2015,12,08,01,16,8.70
2015,12,08,01,17,8.70
2015,12,08,01,18,8.70
2015,12,08,01,19,8.70
2015,12,08,01,20,8.70
2015,12,08,01,21,8.70
2015,12,08,01,22,8.70
2015,12,08,01,23,8.70
2015,12,08,01,24,8.70
2015,12,08,01,25,8.70
2015,12,08,01,26,8.70
2015,12,08,01,27,8.70
2015,12,08,01,28,8.70
2015,12,08,01,29,8.80
2015,12,08,01,30,8.70
2015,12,08,01,31,8.80
2015,12,08,01,32,8.80
2015,12,08,01,33,8.80
2015,12,08,01,34,8.80
2015,12,08,01,35,8.80
2015,12,08,01,36,8.80
2015,12,08,01,37,8.80
2015,12,08,01,38,8.80
2015,12,08,01,39,8.80
2015,12,08,01,40,8.80
2015,12,08,01,41,8.80
2015,12,08,01,42,8.80
2015,12,08,01,43,8.80
2015,12,08,01,44,8.80
2015,12,08,01,45,8.80
2015,12,08,01,46,8.80
2015,12,08,01,47,8.80
2015,12,08,01,48,8.80
2015,12,08,01,49,8.80
2015,12,08,01,50,8.80
2015,12,08,01,51,8.80
2015,12,08,01,52,8.80
2015,12,08,01,53,8.80
2015,12,08,01,54,8.80
2015,12,08,01,55,8.80
2015,12,08,01,56,8.80
2015,12,08,01,57,8.80
2015,12,08,01,58,8.80
2015,12,08,01,59,8.80
2015,12,08,02,00,8.80
2015,12,08,02,01,8.80
2015,12,08,02,02,8.80
2015,12,08,02,03,8.80
2015,12,08,02,04,8.80
2015,12,08,02,05,8.80
2015,12,08,02,06,8.80
2015,12,08,02,07,8.80
2015,12,08,02,08,8.80
2015,12,08,02,09,8.80
2015,12,08,02,10,8.80
2015,12,08,02,11,8.80
2015,12,08,02,12,8.80
2015,12,08,02,13,8.70
2015,12,08,02,14,8.70
2015,12,08,02,15,8.70
2015,12,08,02,16,8.70
2015,12,08,02,17,8.70
2015,12,08,02,18,8.70
2015,12,08,02,19,8.70
2015,12,08,02,20,8.70
2015,12,08,02,21,8.70
2015,12,08,02,22,8.70
2015,12,08,02,23,8.70
2015,12,08,02,24,8.70
2015,12,08,02,25,8.70
2015,12,08,02,26,8.70
2015,12,08,02,27,8.70
2015,12,08,02,28,8.70
2015,12,08,02,29,8.70
2015,12,08,02,30,8.70
2015,12,08,02,31,8.60
2015,12,08,02,32,8.60
2015,12,08,02,33,8.60
2015,12,08,02,34,8.60
2015,12,08,02,35,8.60
2015,12,08,02,36,8.60
2015,12,08,02,37,8.60
2015,12,08,02,38,8.60
2015,12,08,02,39,8.50
2015,12,08,02,40,8.50
2015,12,08,02,41,8.50
2015,12,08,02,42,8.50
2015,12,08,02,43,8.50
2015,12,08,02,44,8.50
2015,12,08,02,45,8.50
2015,12,08,02,46,8.50
2015,12,08,02,47,8.40
2015,12,08,02,48,8.40
2015,12,08,02,49,8.40
2015,12,08,02,50,8.40
2015,12,08,02,51,8.40
2015,12,08,02,52,8.40
2015,12,08,02,53,8.40
2015,12,08,02,54,8.40
2015,12,08,02,55,8.40
2015,12,08,02,56,8.40
2015,12,08,02,57,8.40
2015,12,08,02,58,8.40
2015,12,08,02,59,8.40
2015,12,08,03,00,8.30
2015,12,08,03,01,8.30
2015,12,08,03,02,8.30
2015,12,08,03,03,8.30
2015,12,08,03,04,8.30
2015,12,08,03,05,8.30
2015,12,08,03,06,8.30
2015,12,08,03,07,8.30
2015,12,08,03,08,8.30
2015,12,08,03,09,8.30
2015,12,08,03,10,8.30
2015,12,08,03,11,8.30
2015,12,08,03,12,8.30
2015,12,08,03,13,8.30
2015,12,08,03,14,8.30
2015,12,08,03,15,8.30
2015,12,08,03,16,8.30
2015,12,08,03,17,8.30
2015,12,08,03,18,8.30
2015,12,08,03,19,8.30
2015,12,08,03,20,8.30
2015,12,08,03,21,8.30
2015,12,08,03,22,8.30
2015,12,08,03,23,8.30
2015,12,08,03,24,8.30
2015,12,08,03,25,8.30
2015,12,08,03,26,8.30
2015,12,08,03,27,8.30
2015,12,08,03,28,8.20
2015,12,08,03,29,8.30
2015,12,08,03,30,8.30
2015,12,08,03,31,8.20
2015,12,08,03,32,8.20
2015,12,08,03,33,8.20
2015,12,08,03,34,8.20
2015,12,08,03,35,8.20
2015,12,08,03,36,8.20
2015,12,08,03,37,8.20
2015,12,08,03,38,8.20
2015,12,08,03,39,8.20
2015,12,08,03,40,8.20
2015,12,08,03,41,8.20
2015,12,08,03,42,8.20
2015,12,08,03,43,8.20
2015,12,08,03,44,8.20
2015,12,08,03,45,8.20
2015,12,08,03,46,8.20
2015,12,08,03,47,8.20
2015,12,08,03,48,8.20
2015,12,08,03,49,8.20
2015,12,08,03,50,8.20
2015,12,08,03,51,8.20
2015,12,08,03,52,8.20
2015,12,08,03,53,8.20
2015,12,08,03,54,8.20
2015,12,08,03,55,8.20
2015,12,08,03,56,8.20
2015,12,08,03,57,8.20
2015,12,08,03,58,8.20
2015,12,08,03,59,8.20
2015,12,08,04,00,8.20
2015,12,08,04,01,8.20
2015,12,08,04,02,8.20
2015,12,08,04,03,8.20
2015,12,08,04,04,8.20
2015,12,08,04,05,8.20
2015,12,08,04,06,8.20
2015,12,08,04,07,8.20
2015,12,08,04,08,8.20
2015,12,08,04,09,8.20
2015,12,08,04,10,8.20
2015,12,08,04,11,8.20
2015,12,08,04,12,8.20
2015,12,08,04,13,8.20
2015,12,08,04,14,8.20
2015,12,08,04,15,8.20
2015,12,08,04,16,8.20
2015,12,08,04,17,8.20
2015,12,08,04,18,8.20
2015,12,08,04,19,8.20
2015,12,08,04,20,8.20
2015,12,08,04,21,8.20
2015,12,08,04,22,8.20
2015,12,08,04,23,8.20
2015,12,08,04,24,8.20
2015,12,08,04,25,8.20
2015,12,08,04,26,8.20
2015,12,08,04,27,8.20
2015,12,08,04,28,8.20
2015,12,08,04,29,8.20
2015,12,08,04,30,8.20
2015,12,08,04,31,8.20
2015,12,08,04,32,8.20
2015,12,08,04,33,8.20
2015,12,08,04,34,8.20
2015,12,08,04,35,8.20
2015,12,08,04,36,8.20
2015,12,08,04,37,8.20
2015,12,08,04,38,8.20
2015,12,08,04,39,8.10
2015,12,08,04,40,8.10
2015,12,08,04,41,8.10
2015,12,08,04,42,8.10
2015,12,08,04,43,8.10
2015,12,08,04,44,8.10
2015,12,08,04,45,8.10
2015,12,08,04,46,8.10
2015,12,08,04,47,8.10
2015,12,08,04,48,8.10
2015,12,08,04,49,8.10
2015,12,08,04,50,8.10
2015,12,08,04,51,8.10
2015,12,08,04,52,8.10
2015,12,08,04,53,8.10
2015,12,08,04,54,8.10
2015,12,08,04,55,8.10
2015,12,08,04,56,8.10
2015,12,08,04,57,8.10
2015,12,08,04,58,8.10
2015,12,08,04,59,8.10
2015,12,08,05,00,8.10
2015,12,08,05,01,8.10
2015,12,08,05,02,8.10
2015,12,08,05,03,8.10
2015,12,08,05,04,8.10
2015,12,08,05,05,8.10
2015,12,08,05,06,8.10
2015,12,08,05,07,8.10
2015,12,08,05,08,8.10
2015,12,08,05,09,8.10
2015,12,08,05,10,8.10
2015,12,08,05,11,8.10
2015,12,08,05,12,8.10
2015,12,08,05,13,8.10
2015,12,08,05,14,8.10
2015,12,08,05,15,8.10
2015,12,08,05,16,8.10
2015,12,08,05,17,8.20
2015,12,08,05,18,8.20
2015,12,08,05,19,8.30
2015,12,08,05,20,8.40
2015,12,08,05,21,8.50
2015,12,08,05,22,8.50
2015,12,08,05,23,8.50
2015,12,08,05,24,8.50
2015,12,08,05,25,8.50
2015,12,08,05,26,8.50
2015,12,08,05,27,8.60
2015,12,08,05,28,8.80
2015,12,08,05,29,8.90
2015,12,08,05,30,9.00
2015,12,08,05,31,9.00
2015,12,08,05,32,9.10
2015,12,08,05,33,9.20
2015,12,08,05,34,9.20
2015,12,08,05,35,9.20
2015,12,08,05,36,9.20
2015,12,08,05,37,9.20
2015,12,08,05,38,9.20
2015,12,08,05,39,9.30
2015,12,08,05,40,9.40
2015,12,08,05,41,9.40
2015,12,08,05,42,9.40
2015,12,08,05,43,9.40
2015,12,08,05,44,9.40
2015,12,08,05,45,9.40
2015,12,08,05,46,9.40
2015,12,08,05,47,9.40
2015,12,08,05,48,9.40
2015,12,08,05,49,9.40
2015,12,08,05,50,9.40
2015,12,08,05,51,9.40
2015,12,08,10,05,13.90
2015,12,08,10,06,13.90
2015,12,08,10,07,13.90
2015,12,08,10,08,13.90
2015,12,08,10,09,13.80
2015,12,08,10,10,13.80
2015,12,08,10,11,13.80
2015,12,08,10,12,13.80
2015,12,08,10,13,13.80
2015,12,08,10,14,13.80
2015,12,08,10,15,13.80
2015,12,08,10,16,13.80
2015,12,08,10,17,13.80
2015,12,08,10,18,13.80
2015,12,08,10,19,13.80
2015,12,08,10,20,13.80
2015,12,08,10,21,13.80
2015,12,08,10,22,13.80
2015,12,08,10,23,13.80
2015,12,08,10,24,13.80
2015,12,08,10,25,13.80
2015,12,08,10,26,13.80
2015,12,08,10,27,13.80
2015,12,08,10,28,13.70
2015,12,08,10,29,13.70
2015,12,08,10,30,13.70
2015,12,08,10,31,13.70
2015,12,08,10,32,13.70
2015,12,08,10,33,13.70
2015,12,08,10,34,13.70
2015,12,08,10,35,13.70
2015,12,08,10,36,13.70
2015,12,08,10,37,13.70
2015,12,08,10,38,13.70
2015,12,08,10,39,13.70
2015,12,08,10,40,13.70
2015,12,08,10,41,13.70
2015,12,08,10,42,13.70
2015,12,08,10,43,13.70
2015,12,08,10,44,13.60
2015,12,08,10,45,13.70
2015,12,08,10,46,13.70
2015,12,08,10,47,13.70
2015,12,08,10,48,13.70
2015,12,08,10,49,13.70
2015,12,08,10,50,13.70
2015,12,08,10,51,13.70
2015,12,08,10,52,13.70
2015,12,08,10,53,13.70
2015,12,08,10,54,13.70
2015,12,08,10,55,13.70
2015,12,08,10,56,13.70
2015,12,08,10,57,13.60
2015,12,08,10,58,13.60
2015,12,08,10,59,13.60
2015,12,08,11,00,13.60
2015,12,08,11,01,13.50
2015,12,08,11,02,13.50
2015,12,08,11,03,13.40
2015,12,08,11,04,13.40
2015,12,08,11,05,13.40
2015,12,08,11,06,13.40
2015,12,08,11,07,13.30
2015,12,08,11,08,13.30
2015,12,08,11,09,13.20
2015,12,08,11,10,13.20
2015,12,08,11,11,13.10
2015,12,08,11,12,13.00
2015,12,08,11,13,13.00
2015,12,08,11,14,12.90
2015,12,08,11,15,12.90
2015,12,08,11,16,12.80
2015,12,08,11,17,12.80
2015,12,08,11,18,12.70
2015,12,08,11,19,12.70
2015,12,08,11,20,12.60
2015,12,08,11,21,12.50
2015,12,08,11,22,12.40
2015,12,08,11,23,12.40
2015,12,08,11,24,12.30
2015,12,08,11,25,12.30
2015,12,08,11,26,12.30
2015,12,08,11,27,12.20
2015,12,08,11,28,12.20
2015,12,08,11,29,12.20
2015,12,08,11,30,12.20
2015,12,08,11,31,12.20
2015,12,08,11,32,12.10
2015,12,08,11,33,12.10
2015,12,08,11,34,12.10
2015,12,08,11,35,12.10
2015,12,08,11,36,12.10
2015,12,08,11,37,12.10
2015,12,08,11,38,12.00
2015,12,08,11,39,12.10
2015,12,08,11,40,12.10
2015,12,08,11,41,12.10
2015,12,08,11,42,12.10
2015,12,08,11,43,12.00
2015,12,08,11,44,12.00
2015,12,08,11,45,12.00
2015,12,08,11,46,12.00
2015,12,08,11,47,12.00
2015,12,08,11,48,12.00
2015,12,08,11,49,12.00
2015,12,08,11,50,12.00
2015,12,08,11,51,12.00
2015,12,08,11,52,12.10
2015,12,08,11,53,12.10
2015,12,08,11,54,12.10
2015,12,08,11,55,12.10
2015,12,08,11,56,12.10
2015,12,08,11,57,12.10
2015,12,08,11,58,12.20
2015,12,08,11,59,12.20
2015,12,08,12,00,12.20
2015,12,08,12,01,12.20
2015,12,08,12,02,12.20
2015,12,08,12,03,12.20
2015,12,08,12,04,12.20
2015,12,08,12,05,12.20
2015,12,08,12,06,12.10
2015,12,08,12,07,12.10
2015,12,08,12,08,12.10
2015,12,08,12,09,12.10
2015,12,08,12,10,12.10
2015,12,08,12,11,12.10
2015,12,08,12,12,12.10
2015,12,08,12,13,12.10
2015,12,08,12,14,12.10
2015,12,08,12,15,12.10
2015,12,08,12,16,12.10
2015,12,08,12,17,12.10
2015,12,08,12,18,12.10
2015,12,08,12,19,12.10
2015,12,08,12,20,12.10
2015,12,08,12,21,12.10
2015,12,08,12,22,12.10
2015,12,08,12,23,12.10
2015,12,08,12,24,12.10
2015,12,08,12,25,12.10
2015,12,08,12,26,12.10
2015,12,08,12,27,12.10
2015,12,08,12,28,12.10
2015,12,08,12,29,12.10
2015,12,08,12,30,12.10
2015,12,08,12,31,12.10
2015,12,08,12,32,12.20
2015,12,08,12,33,12.20
2015,12,08,12,34,12.20
2015,12,08,12,35,12.20
2015,12,08,12,36,12.20
2015,12,08,12,37,12.20
2015,12,08,12,38,12.20
2015,12,08,12,39,12.20
2015,12,08,12,40,12.20
2015,12,08,12,41,12.20
2015,12,08,12,42,12.20
2015,12,08,12,43,12.20
2015,12,08,12,44,12.20
2015,12,08,12,45,12.30
2015,12,08,12,46,12.30
2015,12,08,12,47,12.30
2015,12,08,12,48,12.30
2015,12,08,12,49,12.30
2015,12,08,12,50,12.30
2015,12,08,12,51,12.30
2015,12,08,12,52,12.30
2015,12,08,12,53,12.30
2015,12,08,12,54,12.30
2015,12,08,12,55,12.30
2015,12,08,12,56,12.30
2015,12,08,12,57,12.30
2015,12,08,12,58,12.30
2015,12,08,12,59,12.30
2015,12,08,13,00,12.30
2015,12,08,13,01,12.30
2015,12,08,13,02,12.30
2015,12,08,13,03,12.30
2015,12,08,13,04,12.30
2015,12,08,13,05,12.30
2015,12,08,13,06,12.30
2015,12,08,13,07,12.30
2015,12,08,13,08,12.30
2015,12,08,13,09,12.30
2015,12,08,13,10,12.30
2015,12,08,13,11,12.30
2015,12,08,13,12,12.40
2015,12,08,13,13,12.40
2015,12,08,13,14,12.40
2015,12,08,13,15,12.40
2015,12,08,13,16,12.40
2015,12,08,13,17,12.30
2015,12,08,13,18,12.30
2015,12,08,13,19,12.30
2015,12,08,13,20,12.30
2015,12,08,13,21,12.30
2015,12,08,13,22,12.30
2015,12,08,13,23,12.30
2015,12,08,13,24,12.30
2015,12,08,13,25,12.30
2015,12,08,13,26,12.30
2015,12,08,13,27,12.30
2015,12,08,13,28,12.30
2015,12,08,13,29,12.30
2015,12,08,13,30,12.30
2015,12,08,13,31,12.30
2015,12,08,13,32,12.30
2015,12,08,13,33,12.30
2015,12,08,13,34,12.30
2015,12,08,13,35,12.30
2015,12,08,13,36,12.30
2015,12,08,13,37,12.30
2015,12,08,13,38,12.30
2015,12,08,13,39,12.30
2015,12,08,13,40,12.30
2015,12,08,13,41,12.30
2015,12,08,13,42,12.30
2015,12,08,13,43,12.30
2015,12,08,13,44,12.30
2015,12,08,13,45,12.30
2015,12,08,13,46,12.30
2015,12,08,13,47,12.30
2015,12,08,13,48,12.30
2015,12,08,13,49,12.30
2015,12,08,13,50,12.30
2015,12,08,13,51,12.30
2015,12,08,13,52,12.30
2015,12,08,13,53,12.30
2015,12,08,13,54,12.30
2015,12,08,13,55,12.30
2015,12,08,13,56,12.30
2015,12,08,13,57,12.30
2015,12,08,13,58,12.30
2015,12,08,13,59,12.30
2015,12,08,14,00,12.30
2015,12,08,14,01,12.30
2015,12,08,14,02,12.30
2015,12,08,14,03,12.20
2015,12,08,14,04,12.20
2015,12,08,14,05,12.20
2015,12,08,14,06,12.20
2015,12,08,14,07,12.20
2015,12,08,14,08,12.20
2015,12,08,14,09,12.20
2015,12,08,14,10,12.20
2015,12,08,14,11,12.20
2015,12,08,14,12,12.30
2015,12,08,14,13,12.30
2015,12,08,14,14,12.20
2015,12,08,14,15,12.20
2015,12,08,14,16,12.20
2015,12,08,14,17,12.20
2015,12,08,14,18,12.30
2015,12,08,14,19,12.30
2015,12,08,14,20,12.20
2015,12,08,14,21,12.20
2015,12,08,14,22,12.20
2015,12,08,14,23,12.20
2015,12,08,14,24,12.20
2015,12,08,14,25,12.20
2015,12,08,14,26,12.20
2015,12,08,14,27,12.20
2015,12,08,14,28,12.20
2015,12,08,14,29,12.20
2015,12,08,14,30,12.20
2015,12,08,14,31,12.20
2015,12,08,14,32,12.20
2015,12,08,14,33,12.20
2015,12,08,14,34,12.20
2015,12,08,14,35,12.20
2015,12,08,14,36,12.20
2015,12,08,14,37,12.20
2015,12,08,14,38,12.20
2015,12,08,14,39,12.20
2015,12,08,14,40,12.20
2015,12,08,14,41,12.20
2015,12,08,14,42,12.20
2015,12,08,14,43,12.20
2015,12,08,14,44,12.20
2015,12,08,14,45,12.20
2015,12,08,14,46,12.20
2015,12,08,14,47,12.20
2015,12,08,14,48,12.20
2015,12,08,14,49,12.20
2015,12,08,14,50,12.20
2015,12,08,14,51,12.20
2015,12,08,14,52,12.20
2015,12,08,14,53,12.20
2015,12,08,14,54,12.20
2015,12,08,14,55,12.20
2015,12,08,14,56,12.10
2015,12,08,14,57,12.10
2015,12,08,14,58,12.10
2015,12,08,14,59,12.10
2015,12,08,15,00,12.10
2015,12,08,15,01,12.10
2015,12,08,15,02,12.10
2015,12,08,15,03,12.10
2015,12,08,15,04,12.10
2015,12,08,15,05,12.00
2015,12,08,15,06,12.00
2015,12,08,15,07,12.00
2015,12,08,15,08,12.00
2015,12,08,15,09,12.00
2015,12,08,15,10,12.00
2015,12,08,15,11,12.00
2015,12,08,15,12,12.00
2015,12,08,15,13,12.00
2015,12,08,15,14,12.00
2015,12,08,15,15,12.00
2015,12,08,15,16,12.00
2015,12,08,15,17,12.00
2015,12,08,15,18,11.90
2015,12,08,15,19,11.90
2015,12,08,15,20,11.90
2015,12,08,15,21,11.90
2015,12,08,15,22,11.90
2015,12,08,15,23,11.90
2015,12,08,15,24,11.80
2015,12,08,15,25,11.80
2015,12,08,15,26,11.90
2015,12,08,15,27,11.90
2015,12,08,15,28,11.90
2015,12,08,15,29,11.90
2015,12,08,15,30,11.90
2015,12,08,15,31,11.90
2015,12,08,15,32,11.90
2015,12,08,15,33,11.90
2015,12,08,15,34,11.90
2015,12,08,15,35,11.90
2015,12,08,15,36,11.90
2015,12,08,15,37,11.90
2015,12,08,15,38,11.90
2015,12,08,15,39,11.90
2015,12,08,15,40,11.90
2015,12,08,15,41,11.90
2015,12,08,15,42,11.90
2015,12,08,15,43,11.90
2015,12,08,15,44,11.90
2015,12,08,15,45,11.90
2015,12,08,15,46,11.90
2015,12,08,15,47,11.90
2015,12,08,15,48,11.90
2015,12,08,15,49,11.90
2015,12,08,15,50,11.90
2015,12,08,15,51,11.90
2015,12,08,15,52,11.90
2015,12,08,15,53,11.90
2015,12,08,15,54,11.80
2015,12,08,15,55,11.80
2015,12,08,15,56,11.80
2015,12,08,15,57,11.80
2015,12,08,15,58,11.80
2015,12,08,15,59,11.80
2015,12,08,16,00,11.80
2015,12,08,16,01,11.80
2015,12,08,16,02,11.80
2015,12,08,16,03,11.80
2015,12,08,16,04,11.80
2015,12,08,16,05,11.80
2015,12,08,16,06,11.80
2015,12,08,16,07,11.80
2015,12,08,16,08,11.80
2015,12,08,16,09,11.80
2015,12,08,16,10,11.80
2015,12,08,16,11,11.80
2015,12,08,16,12,11.80
2015,12,08,16,13,11.80
2015,12,08,16,14,11.90
2015,12,08,16,15,11.90
2015,12,08,16,16,11.90
2015,12,08,16,17,11.90
2015,12,08,16,18,11.90
2015,12,08,16,19,11.90
2015,12,08,16,20,11.90
2015,12,08,16,21,11.90
2015,12,08,16,22,11.90
2015,12,08,16,23,11.90
2015,12,08,16,24,11.90
2015,12,08,16,25,11.90
2015,12,08,16,26,11.90
2015,12,08,16,27,11.90
2015,12,08,16,28,11.90
2015,12,08,16,29,11.90
2015,12,08,16,30,11.90
2015,12,08,16,31,11.90
2015,12,08,16,32,11.90
2015,12,08,16,33,11.90
2015,12,08,16,34,11.90
2015,12,08,16,35,11.90
2015,12,08,16,36,11.80
2015,12,08,16,37,11.80
2015,12,08,16,38,11.80
2015,12,08,16,39,11.80
2015,12,08,16,40,11.80
2015,12,08,16,41,11.80
2015,12,08,16,42,11.80
2015,12,08,16,43,11.80
2015,12,08,16,44,11.80
2015,12,08,16,45,11.80
2015,12,08,16,46,11.80
2015,12,08,16,47,11.80
2015,12,08,16,48,11.80
2015,12,08,16,49,11.80
2015,12,08,16,50,11.80
2015,12,08,16,51,11.80
2015,12,08,16,52,11.80
2015,12,08,16,53,11.80
2015,12,08,16,54,11.80
2015,12,08,16,55,11.80
2015,12,08,16,56,11.80
2015,12,08,16,57,11.80
2015,12,08,16,58,11.80
2015,12,08,16,59,11.80
2015,12,08,17,00,11.80
2015,12,08,17,01,11.80
2015,12,08,17,02,11.80
2015,12,08,17,03,11.80
2015,12,08,17,04,11.80
2015,12,08,17,05,11.80
2015,12,08,17,06,11.80
2015,12,08,17,07,11.80
2015,12,08,17,08,11.80
2015,12,08,17,09,11.80
2015,12,08,17,10,11.80
2015,12,08,17,11,11.80
2015,12,08,17,12,11.80
2015,12,08,17,13,11.80
2015,12,08,17,14,11.80
2015,12,08,17,15,11.80
2015,12,08,17,16,11.80
2015,12,08,17,17,11.80
2015,12,08,17,18,11.80
2015,12,08,17,19,11.80
2015,12,08,17,20,11.80
2015,12,08,17,21,11.80
2015,12,08,17,22,11.70
2015,12,08,17,23,11.70
2015,12,08,17,24,11.70
2015,12,08,17,25,11.70
2015,12,08,17,26,11.70
2015,12,08,17,27,11.70
2015,12,08,17,28,11.70
2015,12,08,17,29,11.60
2015,12,08,17,30,11.60
2015,12,08,17,31,11.60
2015,12,08,17,32,11.60
2015,12,08,17,33,11.60
2015,12,08,17,34,11.60
2015,12,08,17,35,11.60
2015,12,08,17,36,11.60
2015,12,08,17,37,11.60
2015,12,08,17,38,11.60
2015,12,08,17,39,11.60
2015,12,08,17,40,11.60
2015,12,08,17,41,11.60
2015,12,08,17,42,11.60
2015,12,08,17,43,11.60
2015,12,08,17,44,11.60
2015,12,08,17,45,11.50
2015,12,08,17,46,11.50
2015,12,08,17,47,11.40
2015,12,08,17,48,11.40
2015,12,08,17,49,11.40
2015,12,08,17,50,11.40
2015,12,08,17,51,11.30
2015,12,08,17,52,11.30
2015,12,08,17,53,11.30
2015,12,08,17,54,11.30
2015,12,08,17,55,11.30
2015,12,08,17,56,11.30
2015,12,08,17,57,11.30
2015,12,08,17,58,11.20
2015,12,08,17,59,11.20
2015,12,08,18,00,11.20
2015,12,08,18,01,11.20
2015,12,08,18,02,11.20
2015,12,08,18,03,11.10
2015,12,08,18,04,11.10
2015,12,08,18,05,11.10
2015,12,08,18,06,11.10
2015,12,08,18,07,11.10
2015,12,08,18,08,11.00
2015,12,08,18,09,11.00
2015,12,08,18,10,11.00
2015,12,08,18,11,10.90
2015,12,08,18,12,10.90
2015,12,08,18,13,10.90
2015,12,08,18,14,10.90
2015,12,08,18,15,10.80
2015,12,08,18,16,10.80
2015,12,08,18,17,10.80
2015,12,08,18,18,10.80
2015,12,08,18,19,10.80
2015,12,08,18,20,10.80
2015,12,08,18,21,10.80
2015,12,08,18,22,10.80
2015,12,08,18,23,10.80
2015,12,08,18,24,10.80
2015,12,08,18,25,10.80
2015,12,08,18,26,10.80
2015,12,08,18,27,10.80
2015,12,08,18,28,10.90
2015,12,08,18,29,10.90
2015,12,08,18,30,10.90
2015,12,08,18,31,10.90
2015,12,08,18,32,10.90
2015,12,08,18,33,10.90
2015,12,08,18,34,10.90
2015,12,08,18,35,10.90
2015,12,08,18,36,10.90
2015,12,08,18,37,10.90
2015,12,08,18,38,10.90
2015,12,08,18,39,11.00
2015,12,08,18,40,11.00
2015,12,08,18,41,11.00
2015,12,08,18,42,11.00
2015,12,08,18,43,11.00
2015,12,08,18,44,11.00
2015,12,08,18,45,11.00
2015,12,08,18,46,11.00
2015,12,08,18,47,10.90
2015,12,08,18,48,10.90
2015,12,08,18,49,10.80
2015,12,08,18,50,10.80
2015,12,08,18,51,10.80
2015,12,08,18,52,10.70
2015,12,08,18,53,10.70
2015,12,08,18,54,10.60
2015,12,08,18,55,10.50
2015,12,08,18,56,10.50
2015,12,08,18,57,10.40
2015,12,08,18,58,10.40
2015,12,08,18,59,10.40
2015,12,08,19,00,10.30
2015,12,08,19,01,10.30
2015,12,08,19,02,10.30
2015,12,08,19,03,10.30
2015,12,08,19,04,10.30
2015,12,08,19,05,10.20
2015,12,08,19,06,10.20
2015,12,08,19,07,10.20
2015,12,08,19,08,10.20
2015,12,08,19,09,10.20
2015,12,08,19,10,10.20
2015,12,08,19,11,10.20
2015,12,08,19,12,10.10
2015,12,08,19,13,10.10
2015,12,08,19,14,10.10
2015,12,08,19,15,10.10
2015,12,08,19,16,10.10
2015,12,08,19,17,10.10
2015,12,08,19,18,10.10
2015,12,08,19,19,10.10
2015,12,08,19,20,10.10
2015,12,08,19,21,10.10
2015,12,08,19,22,10.10
2015,12,08,19,23,10.10
2015,12,08,19,24,10.10
2015,12,08,19,25,10.10
2015,12,08,19,26,10.10
2015,12,08,19,27,10.10
2015,12,08,19,28,10.10
2015,12,08,19,29,10.10
2015,12,08,19,30,10.10
2015,12,08,19,31,10.10
2015,12,08,19,32,10.10
2015,12,08,19,33,10.10
2015,12,08,19,34,10.00
2015,12,08,19,35,10.00
2015,12,08,19,36,10.00
2015,12,08,19,37,10.00
2015,12,08,19,38,10.00
2015,12,08,19,39,10.00
2015,12,08,19,40,10.00
2015,12,08,19,41,10.00
2015,12,08,19,42,10.00
2015,12,08,19,43,10.00
2015,12,08,19,44,9.90
2015,12,08,19,45,9.90
2015,12,08,19,46,9.90
2015,12,08,19,47,9.90
2015,12,08,19,48,9.90
2015,12,08,19,49,9.90
2015,12,08,19,50,9.90
2015,12,08,19,51,9.90
2015,12,08,19,52,9.90
2015,12,08,19,53,9.90
2015,12,08,19,54,9.90
2015,12,08,19,55,9.90
2015,12,08,19,56,9.90
2015,12,08,19,57,9.90
2015,12,08,19,58,9.90
2015,12,08,19,59,9.90
2015,12,08,20,00,9.90
2015,12,08,20,01,9.90
2015,12,08,20,02,9.90
2015,12,08,20,03,9.90
2015,12,08,20,04,9.90
2015,12,08,20,05,9.90
2015,12,08,20,06,9.90
2015,12,08,20,07,9.80
2015,12,08,20,08,9.80
2015,12,08,20,09,9.80
2015,12,08,20,10,9.70
2015,12,08,20,11,9.60
2015,12,08,20,12,9.50
2015,12,08,20,13,9.50
2015,12,08,20,14,9.40
2015,12,08,20,15,9.40
2015,12,08,20,16,9.30
2015,12,08,20,17,9.30
2015,12,08,20,18,9.30
2015,12,08,20,19,9.20
2015,12,08,20,20,9.20
2015,12,08,20,21,9.20
2015,12,08,20,22,9.10
2015,12,08,20,23,9.10
2015,12,08,20,24,9.10
2015,12,08,20,25,9.10
2015,12,08,20,26,9.00
2015,12,08,20,27,9.00
2015,12,08,20,28,9.00
2015,12,08,20,29,8.90
2015,12,08,20,30,8.90
2015,12,08,20,31,8.90
2015,12,08,20,32,8.90
2015,12,08,20,33,8.90
2015,12,08,20,34,8.90
2015,12,08,20,35,8.90
2015,12,08,20,36,8.90
2015,12,08,20,37,8.90
2015,12,08,20,38,8.80
2015,12,08,20,39,8.80
2015,12,08,20,40,8.80
2015,12,08,20,41,8.80
2015,12,08,20,42,8.80
2015,12,08,20,43,8.80
2015,12,08,20,44,8.80
2015,12,08,20,45,8.80
2015,12,08,20,46,8.80
2015,12,08,20,47,8.70
2015,12,08,20,48,8.70
2015,12,08,20,49,8.70
2015,12,08,20,50,8.70
2015,12,08,20,51,8.60
2015,12,08,20,52,8.60
2015,12,08,20,53,8.60
2015,12,08,20,54,8.50
2015,12,08,20,55,8.50
2015,12,08,20,56,8.40
2015,12,08,20,57,8.40
2015,12,08,20,58,8.40
2015,12,08,20,59,8.40
2015,12,08,21,00,8.30
2015,12,08,21,01,8.30
2015,12,08,21,02,8.30
2015,12,08,21,03,8.20
2015,12,08,21,04,8.20
2015,12,08,21,05,8.20
2015,12,08,21,06,8.20
2015,12,08,21,07,8.20
2015,12,08,21,08,8.10
2015,12,08,21,09,8.10
2015,12,08,21,10,8.10
2015,12,08,21,11,8.10
2015,12,08,21,12,8.10
2015,12,08,21,13,8.10
2015,12,08,21,14,8.00
2015,12,08,21,15,8.00
2015,12,08,21,16,8.00
2015,12,08,21,17,7.90
2015,12,08,21,18,7.90
2015,12,08,21,19,7.90
2015,12,08,21,20,7.90
2015,12,08,21,21,7.90
2015,12,08,21,22,7.90
2015,12,08,21,23,7.80
2015,12,08,21,24,7.80
2015,12,08,21,25,7.80
2015,12,08,21,26,7.80
2015,12,08,21,27,7.80
2015,12,08,21,28,7.80
2015,12,08,21,29,7.70
2015,12,08,21,30,7.70
2015,12,08,21,31,7.70
2015,12,08,21,32,7.70
2015,12,08,21,33,7.70
2015,12,08,21,34,7.70
2015,12,08,21,35,7.70
2015,12,08,21,36,7.70
2015,12,08,21,37,7.70
2015,12,08,21,38,7.70
2015,12,08,21,39,7.60
2015,12,08,21,40,7.60
2015,12,08,21,41,7.60
2015,12,08,21,42,7.60
2015,12,08,21,43,7.60
2015,12,08,21,44,7.60
2015,12,08,21,45,7.60
2015,12,08,21,46,7.60
2015,12,08,21,47,7.60
2015,12,08,21,48,7.60
2015,12,08,21,49,7.60
2015,12,08,21,50,7.60
2015,12,08,21,51,7.60
2015,12,08,21,52,7.60
2015,12,08,21,53,7.60